Observations for Trim Market St
| Time | AQI | Temp °C | Hum % | Pres Pa | CO μg/m³ | H₂S μg/m³ | NO μg/m³ | NO₂ μg/m³ | O₃ μg/m³ | SO₂ μg/m³ | PM1 μg/m³ | PM2.5 μg/m³ | PM10 μg/m³ |
|---|---|---|---|---|---|---|---|---|---|---|---|---|---|
| Wednesday 26 August 2026 | |||||||||||||
| 09:30 | 2 | 17.8 | 83 | 2,147,483,647 | 0.29 | 0 | 1.35 | 17.87 | 35.57 | 0 | 6.41 | 8.5 | 13.56 |
| 09:29 | 2 | 17.8 | 83 | 2,147,483,647 | 0.31 | 0 | 2.11 | 19.61 | 33.65 | 0 | 6.41 | 8.5 | 12.46 |
| 09:28 | 2 | 17.8 | 83 | 2,147,483,647 | 0.33 | 0 | 2.15 | 19.87 | 41.95 | 0 | 5.7 | 7.56 | 11.36 |
| 09:22 | 2 | 17.7 | 84 | 2,147,483,647 | 0.37 | 0 | 1.19 | 19.84 | 38.15 | 0 | 6.41 | 7.09 | 11.36 |
| 09:20 | 2 | 17.7 | 84 | 2,147,483,647 | 0.29 | 0 | 0.98 | 18.73 | 38.91 | 0 | 5.7 | 6.15 | 10.26 |
| 09:18 | 2 | 17.6 | 84 | 2,147,483,647 | 0.29 | 0 | 1.16 | 21.16 | 32.01 | 0 | 4.28 | 5.68 | 9.72 |
| 09:14 | 2 | 17.5 | 84 | 2,147,483,647 | 0.36 | 0 | 1.96 | 21.35 | 32.61 | 0 | 5.7 | 7.07 | 12.44 |
| 09:10 | 2 | 17.5 | 84 | 2,147,483,647 | 0.28 | 0 | 3.42 | 18.83 | 39.54 | 0 | 6.41 | 7.05 | 10.8 |
| 09:09 | 2 | 17.5 | 84 | 2,147,483,647 | 0.28 | 0 | 3.42 | 21.16 | 33.47 | 0 | 5.7 | 7.07 | 10.8 |
| 09:08 | 2 | 17.5 | 84 | 2,147,483,647 | 0.29 | 0 | 3.36 | 27.5 | 29.88 | 0 | 6.41 | 6.6 | 11.35 |
| 09:07 | 2 | 17.4 | 84 | 2,147,483,647 | 0.32 | 0 | 3.27 | 44.5 | 15.05 | 0 | 4.99 | 5.67 | 10.26 |
| 09:05 | 2 | 17.4 | 84 | 2,147,483,647 | 0.3 | 0 | 1.44 | 21.55 | 34.68 | 0 | 7.13 | 9.4 | 14.07 |
| 09:04 | 2 | 17.4 | 84 | 2,147,483,647 | 0.29 | 0 | 1.51 | 20.69 | 34.7 | 0 | 5.7 | 6.13 | 11.89 |
| 09:03 | 2 | 17.4 | 84 | 2,147,483,647 | 0.3 | 0 | 1.42 | 20.19 | 36.46 | 0 | 5.7 | 7.53 | 11.35 |
| 09:01 | 2 | 17.4 | 84 | 2,147,483,647 | 0.32 | 0 | 1.1 | 25.5 | 36.5 | 0 | 5.7 | 6.6 | 11.34 |
| 09:00 | 2 | 17.4 | 84 | 2,147,483,647 | 0.31 | 0 | 1.04 | 21.35 | 30.44 | 0 | 6.41 | 7.05 | 10.8 |
| 08:58 | 2 | 17.4 | 84 | 2,147,483,647 | 0.34 | 0 | 1.02 | 26.31 | 34.64 | 0 | 5.7 | 6.6 | 10.25 |
| 08:54 | 2 | 17.3 | 84 | 2,147,483,647 | 0.27 | 0 | 1.22 | 17.6 | 36.95 | 0 | 5.7 | 7.06 | 11.34 |
| 08:53 | 2 | 17.3 | 84 | 2,147,483,647 | 0.28 | 0 | 1.05 | 22.91 | 38.58 | 0 | 5.7 | 7.06 | 11.34 |
| 08:52 | 2 | 17.3 | 84 | 2,147,483,647 | 0.29 | 0 | 1.27 | 21.52 | 34.34 | 0 | 6.41 | 7.05 | 9.71 |